Showing default

FLOCK 4G 22, 62645

Orbit data source: Space-Track

FLOCK 4G 22, 62645 is a payload satellite owned by Planet (US) in SSO that was launched on Tue, 14 Jan 2025 UTC via an FALCON 9 launch vehicle from the Air Force Western Test Range (AFWTR). Payload-class satellites include a variety of spacecraft equipped with specific instruments for various scientific and technological missions. These include communications satellites like Starlink; space stations such as the ISS; scientific satellites like the Hubble; Earth observation satellites from companies like Planet Labs, Umbra, and HawkEye 360; GPS; miniature CubeSats for education and research; and military/defense satellites.

Loading next visibility...
Identifier
62645, 2025-009AN
Orbit
SSO
Country
Flag of USUS
Related business
Manufacturer
Planet
Mission
Operational Commercial Imaging
Bus & Motor
CUBESAT 3U, Unknown motor
Mass
5.7 kg wet, 5.7 kg dry
Launch date (UTC)
2025-01-14 (1 year ago)
Launch vehicle
FALCON 9
Launch site
Air Force Western Test Range (AFWTR)
Object type
Payload
Rocket body
Debris
Shape & HBR
Box + 2 Pan, 1.0 m
Radar Cross Section
0.072 m², Medium (>0.1 m² and < 1m²)

Expand to show TLE details & history
Last TLE update: 8 hours ago

TLE from 8 hours ago
0 FLOCK 4G 22
1 62645U 25009AN  26034.21638251  .00011708  00000-0  45288-3 0  9999
2 62645  97.4114 117.1217 0003352  70.1850 289.9750 15.26360544 58464
Epoch: 2026-02-03T05:11Z
TLE epoch observation values (Epoch: 2026-02-03T05:11:35.448Z)
Latitude
-0.00002°
Longitude
-94.1765°
Altitude
489.016 km
Speed
7.621 km/s
True Right ascension
07h 48m 29s
True Declination
0° 00' 00"
Sunlit
Object was in full shadow at epoch
Visualization orbit readout
Latitude
Unknown
Longitude
Unknown
Altitude
Unknown
Speed
Unknown
Apparent Right ascension
Unknown
Apparent Declination
Unknown
Sunlit
N/A
Visualization observer readout
Local Sidereal Time
14:57:45
Azimuth
Unknown
Elevation
Unknown
Doppler factor
Unknown
Orbital elements
Apogee altitude
485.961 km
Perigee altitude
481.361 km
Semi-major axis
6,861.798 km
Eccentricity
0.00034
Inclination
97.4114°
RAAN
117.1217°
Arg. of periapsis
70.185°
True anomaly
289.93889°
Mean anomaly
289.975°
Eccentric anomaly
289.95695°
Mean motion
3.81844 °/min
Orbital period
94.28 mins
BSTAR
0.00045288
Loading maneuver chart data...
Computing Atmospheric mass density...
Loading historical data...
Loading historical data...
Loading historical data...
Loading historical data...
Loading historical data...
Loading historical data...
Loading historical data...

Documentation

Showing up to 5 results
|